Regional Weather Roundup
Issued by NWS

Home | Current Version | Previous Version | Text Only | Print | Product List | Glossary Off
Versions: 1 2 3 4 5 6 7 8 9 10 11 12 13 14 15 16 17 18 19 20 21 22 23 24 25 26 27 28 29 30 31 32 33 34 35 36 37 38 39 40 41 42 43 44 45 46 47 48 49 50

000
ASUS43 KMKX 250200
RWRWI

WISCONSIN REGIONAL WEATHER ROUNDUP
NATIONAL WEATHER SERVICE MILWAUKEE/SULLIVAN WI
900 PM CDT FRI OCT 24 2014

NOTE: "FAIR" INDICATES FEW OR NO CLOUDS BELOW 12,000 FEET WITH NO
SIGNIFICANT WEATHER AND/OR OBSTRUCTIONS TO VISIBILITY.

WIZ001-002-006>008-014>016-023>028-250300-
NORTHWEST WISCONSIN

CITY           SKY/WX    TMP DP  RH WIND       PRES   REMARKS
SUPERIOR ARPT  PTCLDY    58  52  80 SW8       29.76S
ASHLAND        CLEAR     56  52  86 SW10      29.77F
HAYWARD        PTCLDY    53  51  93 S6        29.82F
SIREN          MOCLDY    55  53  94 S6        29.82F
CUMBERLAND     CLOUDY    54  54 100 SW7       29.85S FOG
RICE LAKE      CLOUDY    56  54  92 S6        29.87S FOG
CHETEK         CLOUDY    56  55  94 SW3       29.86S FOG
LADYSMITH      CLOUDY    56  55  94 SW6       29.87S
EAU CLAIRE     CLOUDY    54  53  97 S5        29.86F FOG
MENOMONIE      FOG       52  52  98 CALM      29.87S VSB 1/2
NEW RICHMOND     N/A     52  52 100 S5        29.86S FOG
OSCEOLA        MOCLDY    53  53 100 SE6       29.87S FOG
$$

WIZ003>005-009-010-017-018-250300-
NORTH CENTRAL WISCONSIN

CITY           SKY/WX    TMP DP  RH WIND       PRES   REMARKS
MANITOWISH WTR CLOUDY    55  51  87 SW8       29.81F
ARBOR VITAE    CLOUDY    57  52  83 SW10      29.82F
WOODRUFF       CLOUDY    57  52  83 SW10      29.82F
RHINELANDER    CLOUDY    54  48  80 SW7       29.84F
EAGLE RIVER    CLOUDY    55  46  72 SW7       29.81F
LAND O LAKES   CLOUDY    56  50  79 SW6       29.81F
PHILLIPS       CLOUDY    55  51  85 SW8       29.83F
TOMAHAWK       CLOUDY    54  48  82 CALM      29.85F
MEDFORD        CLOUDY    55  53  95 SW8       29.86S
MERRILL        CLOUDY    55  50  82 SW6       29.86S
$$

WIZ029-030-035-036-043>047-250300-
CENTRAL WISCONSIN

CITY           SKY/WX    TMP DP  RH WIND       PRES   REMARKS
WAUSAU         CLOUDY    55  50  83 SW5       29.85F
MOSINEE        CLOUDY    55  52  88 SW7       29.88F
MARSHFIELD     CLOUDY    57  55  93 SW8       29.87S FOG
STEVENS POINT  CLOUDY    55  50  83 SW8       29.88S
WAUPACA        CLOUDY    55  52  91 CALM      29.88F
WAUTOMA        NOT AVBL
WISC RAPIDS    CLOUDY    56  53  90 SW5       29.90R
CAMP DOUGLAS   CLOUDY    59  59 100 SW6       29.90R
$$

WIZ011>013-019>022-031-037>040-048>050-250300-
NORTHEAST WISCONSIN

CITY           SKY/WX    TMP DP  RH WIND       PRES   REMARKS
ANTIGO         CLOUDY    52  50  90 SW5       29.86F
SHAWANO        CLOUDY    53  49  87 CALM      29.88F
OCONTO         MOCLDY    50  50 100 CALM      29.87F
STURGEON BAY   CLOUDY    50  46  87 S10       29.88F VSB 1/2
GREEN BAY      CLOUDY    52  50  93 S3        29.88F
MANITOWOC      NOT AVBL
APPLETON       CLOUDY    54  50  87 S7        29.89F
CLINTONVILLE   CLOUDY    52  50  93 CALM      29.88S
OSHKOSH        CLOUDY    55  51  86 S10       29.88F
$$

WIZ032>034-041-042-053>061-250300-
SOUTHWEST WISCONSIN

CITY           SKY/WX    TMP DP  RH WIND       PRES   REMARKS
LA CROSSE      CLOUDY    58  55  90 S7        29.89F
SPARTA         CLOUDY    58  55  89 CALM      29.90S
VIROQUA        CLOUDY    57  57 100 SW6       29.91S
BOSCOBEL       CLOUDY    60  57  89 SW5       29.92R
PRAIRIE DU CHI CLOUDY    59  56  88 CALM      29.91S
PLATTEVILLE    MOCLDY    56  53  92 SW5       29.93S
$$

WIZ056-057-062-063-064-067-068-250300-
SOUTH CENTRAL WISCONSIN

CITY           SKY/WX    TMP DP  RH WIND       PRES   REMARKS
REEDSBURG      CLOUDY    58  55  89 SW5       29.90S
BARABOO/DELLS  CLOUDY    58  51  78 SW7       29.90S
LONE ROCK      NOT AVBL
MINERAL POINT  CLOUDY    59  54  82 SW3       29.92F
MADISON        CLOUDY    57  50  77 S3        29.91F
MIDDLETON      CLOUDY    59  50  72 S3        29.90F
WATERTOWN      CLOUDY    55  52  91 SE3       29.91F
MONROE         CLOUDY    55  50  82 S9        29.92F
JANESVILLE     CLOUDY    61  50  67 S6        29.92F
$$

WIZ051-052-058>065-066-070>072-250300-
SOUTHEAST WISCONSIN

CITY           SKY/WX    TMP DP  RH WIND       PRES   REMARKS
MILWAUKEE      CLOUDY    54  49  83 SW6       29.94S HAZE
WAUKESHA       CLOUDY    54  50  87 S3        29.94F
MILWAUKEE/TIMM CLOUDY    55  48  76 S5        29.94S
RACINE         CLOUDY    54  51  90 CALM      29.95S FOG
BURLINGTON     CLOUDY    51  49  95 CALM      29.94R
KENOSHA        CLOUDY    52  50  93 W3        29.93F FOG
FOND DU LAC    CLOUDY    56  50  80 S6        29.90F
SHEBOYGAN      LGT RAIN  52  49  89 S6        29.91F
WEST BEND      CLOUDY    55  46  71 S6        29.91F
JUNEAU         CLOUDY    55  50  85 S6        29.92F
$$

LSZ147-162-250300-
LAKE SUPERIOR

STATION/POSITION TIME  TEMP    WIND        PRES    WAVE
                       AIR SEA DIR/SP/G            HT/PER
                 (UTC) (F)     (DEG/KT/KT) (MB)    (FT/S)
W MID LAKE BUOY  0050   54 47  220/ 19/ 23 1005.4F   1/ 2
DEVILS ISLAND    0100   58     210/ 15/ 17 1006.5F
PORT WING        0100   60     190/ 11/ 17 1007.5
SAXON HARBOR     0100   60     190/  9/ 16 1007.8S
$$

LMZ867-665-643>646-250300-
LAKE MICHIGAN

STATION/POSITION TIME  TEMP    WIND        PRES    WAVE
                       AIR SEA DIR/SP/G            HT/PER
                 (UTC) (F)     (DEG/KT/KT) (MB)    (FT/S)
CHAMBERS ISLAND  0100   50     160/  7/ 13 1011.5F
N MID LAKE BUOY  0050   49 51  210/ 17/ 23 1011.9F   3/ 4
NORTHPORT PIER   0100   49     160/  6/ 12 1011.5F
SISTER BAY       0143          200/  8/  9   N/A
ALGOMA LAKESHORE 0111          220/ 21/ 23   N/A
KEWAUNEE LAKESHO 0100   50     180/ 13/ 17 1011.8F
SHEBOYGAN LAKESH 0100   51 51  180/ 13/ 14 1013.6F
PORT WASHINGTON  0100   52     190/  3/  6 1014.2S
ATWATER BUOY     0100   53     160/ 10/ 12 1014.6F
MILWAUKEE LAKESH 0100   52     150/  8/  9   N/A
S MID LAKE BUOY  0050   54 54  130/  6/  6 1014.4F   0
KENOSHA   LAKESH 0100   54     170/  5/  6 1013.5F
$$

TC  - TEMPERATURE IN CELSIUS
VSB - VISIBILITY IN STATUTE MILES
WCI - WIND CHILL INDEX
HX  - HEAT INDEX




USA.gov is the U.S. government's official web portal to all federal, state and local government web resources and services.